www.pogodaiklimat.ru

Погода и климат >> Архив погоды >> Япония >> Вакканай


ПОГОДА в Вакканае

  • Прогноз погоды в Вакканае
  • Монитор погоды в Вакканае

АРХИВ ПОГОДЫ в Вакканае

Время (UTC), дата Ветер
(напр.,м/с)
 
Видим.   Явления Облачность Т
(С)
Тd
(С)
f
(%)
Тe
(С)
Тes
(С)
Комфортность P
(гПа)
Po
(гПа)
Тmin
(С)
Tmax
(С)
R
(мм)
R24
(мм)
S
(см)
04 12.06 В 4 н/о н/о +12.0 +10.9 93 +10 +10 1011.0 1009.6
05 12.06 В 3 н/о н/о +12.1 +10.9 92 +10 +10 1010.8 1009.4
06 12.06 В 3 8000 м слаб. ливневой дождь 10/10 100 м
[Frnb]
+11.7 +10.9 95 +10 +10 1010.5 1009.1 0.5
07 12.06 В 3 н/о н/о +11.6 +10.7 94 +10 +10 1010.4 1009.0
08 12.06 В 4 н/о н/о +11.3 +10.7 96 +9 +9 1010.3 1008.9
09 12.06 В 4 5000 м слаб. ливневой дождь 10/10 100 м
[Frnb]
+11.0 +10.6 97 +9 +9 1010.4 1009.0
10 12.06 В 3 н/о н/о +10.9 +10.5 97 +9 +9 1010.4 1009.0
11 12.06 В 4 н/о н/о +10.6 +10.3 98 +8 +8 1010.5 1009.1
12 12.06 СВ 4 8000 м слаб. ливневой дождь 10/10 100 м
[Frnb]
+10.8 +10.4 97 +8 +8 1010.7 1009.3 +12.5 3
13 12.06 СВ 6 н/о н/о +10.7 +10.4 98 +7 +7 1010.6 1009.2
14 12.06 В 5 н/о н/о +10.5 +10.2 98 +7 +7 1010.3 1008.9
15 12.06 СВ 7 н/о н/о +10.4 +9.8 96 +7 +7 1010.4 1009.0
16 12.06 В 4 н/о н/о +10.2 +9.8 97 +8 +8 1010.2 1008.8
17 12.06 В 4 н/о н/о +10.2 +9.1 93 +8 +8 1010.1 1008.7
18 12.06 В 4 15 км {ливн. осадки} 9/9
[St]
+10.3 +9.1 92 +8 +8 1010.1 1008.7 2
19 12.06 В 4 н/о н/о +10.3 +9.2 93 +8 +8 1010.1 1008.7
20 12.06 В 4 н/о н/о +10.5 +9.3 92 +8 +8 1010.4 1009.0
21 12.06 В 3 20 км в посл. час ливневой дождь 9/9 200 м
[St]
+10.8 +9.4 91 +9 +9 1010.7 1009.3
22 12.06 В 3 н/о н/о +11.3 +9.2 87 +9 +9 1010.9 1009.5
23 12.06 В 3 н/о н/о +11.9 +9.5 85 +10 +10 1011.0 1009.6
00 13.06 СВ 4 20 км {ливн. осадки} 9/9
[Sc]
+13.1 +10.6 85 +11 +12 1011.5 1010.1 +10.0 2
01 13.06 СВ 5 н/о н/о +13.3 +10.3 82 +11 +11 1011.3 1009.9
02 13.06 СВ 5 н/о н/о +14.1 +10.7 80 +12 +12 1010.7 1009.3
03 13.06 СВ 5 20 км 9/9
[Cu med, cong]
+14.3 +10.3 77 +13 +14 1010.9 1009.5
04 13.06 СВ 6 н/о н/о +13.8 +10.2 79 +12 +12 1010.8 1009.4
05 13.06 СВ 5 н/о н/о +13.6 +10.0 79 +12 +12 1010.6 1009.2
06 13.06 СВ 5 30 км 9/9
[Cu med, cong]
+13.0 +10.2 83 +11 +12 1010.7 1009.3
07 13.06 СВ 5 н/о н/о +12.9 +10.5 85 +11 +11 1010.7 1009.3
08 13.06 В 3 н/о н/о +12.7 +9.5 81 +11 +11 1011.1 1009.7
09 13.06 В 3 20 км 9/9
[Cu hum]
+12.8 +9.8 82 +11 +11 1011.1 1009.7
10 13.06 ЮВ 3 н/о н/о +13.0 +10.2 83 +12 +12 1011.2 1009.8
11 13.06 ЮВ 2 н/о н/о +13.0 +10.4 84 +12 +12 1011.6 1010.2
12 13.06 Ю 3 20 км 9/9
[St]
+12.2 +10.8 91 +11 +11 1011.6 1010.2 +15.0
13 13.06 ЮВ 2 н/о н/о +12.1 +11.2 94 +11 +11 1011.0 1009.6
14 13.06 ЮВ 1 н/о н/о +12.4 +11.6 95 +12 +12 1010.7 1009.3
15 13.06 ЮЗ 4 н/о н/о +13.9 +12.6 92 +12 +12 1010.6 1009.2
16 13.06 ЮЗ 6 н/о н/о +14.3 +12.7 90 +12 +12 1010.2 1008.8
17 13.06 ЮЗ 3 н/о н/о +14.2 +11.7 85 +13 +13 1010.0 1008.6
18 13.06 ЮЗ 4 15 км в посл. час ливневой дождь 9/9
[Cu med, cong]
+14.3 +12.2 87 +13 +13 1010.1 1008.7 0.0
19 13.06 Ю 5 н/о н/о +14.4 +11.7 84 +13 +13 1009.9 1008.5
20 13.06 ЮЗ 5 н/о н/о +14.5 +11.5 82 +13 +13 1009.3 1007.9
21 13.06 Ю 7 15 км в посл. час ливневой дождь 9/9
[Cu med, cong]
+15.0 +11.8 81 +13 +13 1009.1 1007.7
22 13.06 ЮЗ 7 н/о н/о +15.9 +10.7 71 +14 +14 1008.8 1007.4
23 13.06 Ю 7 н/о н/о +15.8 +12.0 78 +14 +14 1008.5 1007.1
00 14.06 Ю 7 15 км {ливн. осадки} 9/9
[Cu med, cong]
+15.9 +12.5 80 +14 +15 1008.3 1006.9 +12.0 0.0
01 14.06 Ю 9 н/о н/о +16.5 +12.3 76 +15 +15 1008.0 1006.6
02 14.06 Ю 9 н/о н/о +17.1 +12.2 73 +16 +16 1008.3 1006.9
03 14.06 Ю 9 20 км {ливн. осадки} 9/5
[Cu med, cong Ac As Ci sp]
+16.9 +12.0 73 +15 +16 1008.3 1006.9
04 14.06 Ю 8 н/о н/о +16.9 +12.9 77 +16 +16 1007.9 1006.5
05 14.06 ЮЗ 7 н/о н/о +17.2 +13.3 78 +16 +16 1007.9 1006.5
06 14.06 ЮЗ 6 15 км {ливн. осадки} 9/1
[Cu med, cong Ac As]
+17.4 +13.3 77 +17 +18 1007.7 1006.3 0.0
07 14.06 ЮЗ 6 н/о н/о +16.9 +13.6 81 +16 +16 1007.6 1006.2
08 14.06 ЮЗ 6 н/о н/о +16.5 +13.8 84 +15 +15 1007.9 1006.5
09 14.06 ЮЗ 6 15 км 9/1
[St Ac As]
+16.3 +13.8 85 +15 +15 1008.4 1007.0
10 14.06 ЮЗ 5 н/о н/о +16.3 +14.0 86 +15 +15 1008.5 1007.1
11 14.06 ЮЗ 6 н/о н/о +16.3 +14.3 88 +15 +15 1008.9 1007.5
12 14.06 ЮЗ 6 15 км 9/1
[St Ac As]
+16.2 +14.2 88 +15 +15 1009.2 1007.8 +17.8 0.0
13 14.06 ЮЗ 5 н/о н/о +16.2 +14.2 88 +15 +15 1009.4 1008.0
14 14.06 ЮЗ 5 н/о н/о +16.1 +13.9 87 +15 +15 1009.4 1008.0
15 14.06 ЮЗ 4 н/о н/о +16.0 +13.5 85 +15 +15 1009.6 1008.2
16 14.06 З 4 н/о н/о +16.3 +13.0 81 +16 +16 1009.5 1008.1
17 14.06 ЮЗ 2 н/о н/о +16.2 +12.8 80 +16 +16 1009.6 1008.2
18 14.06 ЮЗ 2 15 км 9/0
[Ac trans Ci sp]
+15.2 +12.5 84 +15 +15 1009.2 1007.8
19 14.06 В 1 н/о н/о +14.1 +12.5 90 +15 +15 1009.5 1008.1
20 14.06 ЮЗ 1 н/о н/о +14.6 +12.6 88 +16 +16 1009.9 1008.5
21 14.06 В 2 20 км 9/0
[Ac trans Ci sp]
+14.4 +12.6 89 +14 +16 1009.7 1008.3
22 14.06 СВ 1 н/о н/о +15.4 +13.3 87 +17 +17 1010.0 1008.6
23 14.06 СВ 1 н/о н/о +16.3 +13.2 82 +17 +17 1010.1 1008.7
00 15.06 С 2 15 км 9/1
[St Ac trans Ci sp]
+17.9 +13.6 76 +19 +26 1009.8 1008.4 +13.8 0.0
01 15.06 С 6 н/о н/о +16.0 +13.3 84 +15 +15 1010.2 1008.8
02 15.06 С 5 н/о н/о +15.4 +12.9 85 +14 +14 1010.1 1008.7
03 15.06 СЗ 4 15 км 9/1
[St Ac As]
+14.8 +12.0 83 +14 +18 1010.1 1008.7
04 15.06 С 6 н/о н/о +15.0 +12.5 85 +13 +13 1010.0 1008.6
05 15.06 СВ 7 н/о н/о +13.0 +11.9 93 +10 +10 1010.4 1009.0
06 15.06 СВ 7 2000 м дымка 10/10
[St]
+12.9 +12.0 94 +10 +10 1010.2 1008.8
07 15.06 СВ 6 н/о н/о +12.5 +11.4 93 +10 +10 1010.2 1008.8
08 15.06 СВ 6 н/о н/о +12.3 +11.7 96 +9 +9 1010.1 1008.7
09 15.06 СВ 5 4000 м дымка 10/10
[St]
+12.3 +11.7 96 +10 +10 1010.4 1009.0
10 15.06 СВ 7 н/о н/о +12.6 +11.8 95 +10 +10 1010.8 1009.4
11 15.06 СВ 6 н/о н/о +12.4 +11.5 94 +10 +10 1010.7 1009.3
12 15.06 СВ 8 6000 м дымка 10/10
[St]
+12.0 +11.2 95 +9 +9 1011.0 1009.6 +18.7
13 15.06 СВ 9 н/о н/о +11.4 +10.6 95 +7 +7 1010.5 1009.1
14 15.06 СВ 10 н/о н/о +11.1 +10.3 95 +7 +7 1010.3 1008.9
15 15.06 СВ 10 н/о н/о +10.8 +9.9 94 +7 +7 1010.1 1008.7
16 15.06 СВ 11 н/о н/о +11.0 +10.1 94 +7 +7 1008.9 1007.5
17 15.06 СВ 12 н/о н/о +10.8 +10.0 95 +6 +6 1008.1 1006.7
18 15.06 СВ 12 4000 м слаб. ливневой дождь 9/9
[Cu med, cong]
+10.7 +10.0 95 +6 +6 1007.9 1006.5 4
19 15.06 СВ 12 н/о н/о +10.9 +10.5 97 +6 +6 1007.2 1005.8
20 15.06 СВ 13 н/о н/о +11.0 +10.7 98 +6 +6 1006.3 1004.9
21 15.06 СВ 14 4000 м в посл. час ливневой дождь 10/10 100 м
[St]
+10.9 +10.6 98 +6 +6 1006.0 1004.6
22 15.06 СВ 13 н/о н/о +11.4 +11.1 98 +7 +7 1005.6 1004.2
23 15.06 СВ 13 н/о н/о +11.4 +11.0 97 +7 +7 1004.7 1003.3
00 16.06 СВ 15 4000 м слаб. ливневой дождь 9/9 100 м
[Cu med, cong]
+11.3 +11.0 98 +6 +6 1003.9 1002.5 +10.6 4
01 16.06 СВ 15 н/о н/о +11.0 +10.7 98 +6 +6 1003.0 1001.6
02 16.06 СВ 16 н/о н/о +10.9 +10.5 97 +6 +6 1002.5 1001.1
03 16.06 СВ 15 5000 м слаб. ливневой дождь 10/10 100 м
[Cu med, cong]
+11.1 +10.8 98 +6 +6 1002.0 1000.6
04 16.06 СВ 16 н/о н/о +10.9 +10.6 98 +6 +6 1001.1 999.7
05 16.06 СВ 18 н/о н/о +10.4 +10.0 97 +5 +5 1000.6 999.2
06 16.06 СВ 19 5000 м слаб. ливневой дождь 10/10 100 м
[Frnb]
+10.3 +9.7 96 +4 +4 1000.0 998.6 6
07 16.06 СВ 16 н/о н/о +10.0 +9.4 96 +4 +4 999.8 998.4
08 16.06 СВ 17 н/о н/о +9.9 +9.1 95 +4 +4 999.7 998.3
09 16.06 СВ 17 5000 м слаб. ливневой дождь 10/10 200 м
[Frnb]
+9.5 +8.7 95 +3 +3 999.5 998.1
10 16.06 СВ 16 н/о н/о +9.3 +8.5 95 +3 +3 999.2 997.8
11 16.06 СВ 16 н/о н/о +9.2 +8.4 95 +3 +3 999.3 997.9
12 16.06 СВ 13 5000 м слаб. ливневой дождь 10/10 200 м
[Frnb]
+8.9 +8.0 94 +3 +3 999.4 998.0 +11.4 6
13 16.06 С 10 н/о н/о +9.3 +8.4 94 +4 +4 998.9 997.5
14 16.06 С 11 н/о н/о +9.3 +8.4 94 +4 +4 998.4 997.0
15 16.06 С 13 н/о н/о +9.3 +7.8 90 +4 +4 998.0 996.6
16 16.06 С 12 н/о н/о +8.9 +7.5 91 +3 +3 998.0 996.6
17 16.06 С 11 н/о н/о +8.9 +7.7 92 +4 +4 998.4 997.0
18 16.06 С 12 5000 м слаб. ливневой дождь 10/10
[Frnb]
+8.7 +7.3 91 +3 +3 999.0 997.6 5
19 16.06 С 12 н/о н/о +8.6 +7.2 91 +3 +3 999.3 997.9
20 16.06 С 12 н/о н/о +8.7 +7.2 90 +3 +3 1000.0 998.6
21 16.06 С 13 10 км слаб. ливневой дождь 10/10
[Frnb]
+9.2 +7.2 87 +4 +4 1000.7 999.3
22 16.06 С 13 н/о н/о +9.5 +6.9 84 +4 +4 1001.4 1000.0
23 16.06 С 12 н/о н/о +10.5 +7.4 81 +6 +6 1002.0 1000.6
00 17.06 С 11 15 км {ливн. осадки} 9/8
[Cu med, cong Ac As]
+10.8 +7.1 78 +7 +7 1002.3 1000.9 +8.4 5
01 17.06 С 9 н/о н/о +11.9 +7.8 76 +8 +8 1002.6 1001.2
02 17.06 С 8 н/о н/о +11.1 +7.0 76 +8 +8 1003.2 1001.8
03 17.06 С 8 15 км 9/8
[Cu med, cong Ac trans Ci sp]
+11.6 +7.3 75 +8 +9 1003.7 1002.3
04 17.06 С 7 н/о н/о +11.2 +7.3 77 +8 +8 1004.2 1002.8
05 17.06 С 7 н/о н/о +10.9 +6.9 76 +7 +7 1004.8 1003.4
06 17.06 СЗ 5 10 км 9/9
[Cu med, cong]
+10.5 +6.5 76 +8 +8 1005.5 1004.1
07 17.06 С 6 н/о н/о +10.2 +6.0 75 +7 +7 1005.9 1004.5
08 17.06 СЗ 4 н/о н/о +9.6 +5.8 77 +7 +7 1006.0 1004.6
09 17.06 З 4 20 км 8/1
[St Ci sp]
+10.4 +4.1 65 +8 +9 1006.2 1004.8
10 17.06 З 4 н/о н/о +10.4 +5.6 72 +8 +8 1007.1 1005.7
11 17.06 З 4 н/о н/о +10.1 +5.7 74 +8 +8 1007.8 1006.4
12 17.06 З 5 20 км 4/1
[St Ci sp]
+10.0 +6.0 76 +7 +7 1008.4 1007.0 +12.5
13 17.06 З 6 н/о н/о +10.3 +5.9 74 +7 +7 1009.2 1007.8
14 17.06 З 5 н/о н/о +10.6 +5.8 72 +8 +8 1009.6 1008.2
15 17.06 З 6 н/о н/о +11.0 +5.8 70 +8 +8 1009.7 1008.3
16 17.06 З 3 н/о н/о +11.2 +5.5 68 +9 +9 1009.4 1008.0
17 17.06 З 3 н/о н/о +11.2 +6.6 73 +9 +9 1009.1 1007.7
18 17.06 ЮЗ 1 20 км 9/1
[Cu hum Ac As]
+10.9 +7.2 78 +11 +11 1009.0 1007.6
19 17.06 ЮЗ 1 н/о н/о +10.9 +7.2 78 +11 +11 1009.1 1007.7
20 17.06 ЮЗ 3 н/о н/о +10.9 +6.9 76 +9 +9 1009.1 1007.7
21 17.06 ЮЗ 5 40 км слаб. ливневой дождь 9/1
[Cu med, cong Ac As]
+11.4 +5.5 67 +9 +9 1008.8 1007.4
22 17.06 Ю 6 н/о н/о +12.6 +7.3 70 +10 +10 1008.4 1007.0
23 17.06 Ю 6 н/о н/о +14.1 +8.9 71 +12 +12 1008.1 1006.7
00 18.06 ЮЗ 5 30 км {ливн. осадки} 9/9
[Cu med, cong]
+13.9 +10.9 82 +12 +13 1007.7 1006.3 +10.0 0.0
01 18.06 ЮЗ 5 н/о н/о +14.8 +11.0 78 +13 +13 1008.2 1006.8
02 18.06 З 7 н/о н/о +15.1 +10.9 76 +13 +13 1007.8 1006.4
03 18.06 З 8 15 км 5/1
[Cu med, cong Ac trans]
+14.8 +10.8 77 +13 +15 1007.8 1006.4
04 18.06 З 6 н/о н/о +16.1 +11.3 73 +15 +15 1007.6 1006.2
05 18.06 З 8 н/о н/о +16.0 +11.8 76 +14 +14 1007.3 1005.9
06 18.06 ЮЗ 7 20 км 3/3
[Cu med, cong Ci fib]
+16.2 +12.2 77 +15 +17 1007.0 1005.6
07 18.06 ЮЗ 8 н/о н/о +16.0 +12.2 78 +14 +14 1006.7 1005.3
08 18.06 ЮЗ 7 н/о н/о +15.5 +12.3 81 +14 +14 1006.3 1004.9
09 18.06 ЮЗ 8 30 км 4/3
[Cu hum Ci fib]
+14.7 +12.4 86 +12 +13 1006.5 1005.1
10 18.06 Ю 7 н/о н/о +14.2 +11.7 85 +12 +12 1006.8 1005.4
11 18.06 Ю 7 н/о н/о +14.0 +11.9 87 +12 +12 1007.0 1005.6
12 18.06 Ю 7 20 км 9/9
[Cu med, cong]
+14.0 +11.9 87 +12 +12 1007.6 1006.2 +16.6
13 18.06 Ю 6 н/о н/о +13.6 +12.0 90 +11 +11 1007.8 1006.4
14 18.06 ЮЗ 6 н/о н/о +13.4 +11.6 89 +11 +11 1007.7 1006.3
15 18.06 Ю 6 н/о н/о +13.0 +11.6 91 +11 +11 1007.6 1006.2
16 18.06 ЮЗ 6 н/о н/о +13.1 +11.7 91 +11 +11 1007.5 1006.1
17 18.06 ЮЗ 6 н/о н/о +13.6 +12.7 94 +11 +11 1007.3 1005.9
18 18.06 ЮЗ 6 5000 м слаб. ливневой дождь 10/10 100 м
[Frnb]
+13.9 +13.6 98 +12 +12 1007.0 1005.6 0.0
19 18.06 ЮЗ 6 н/о н/о +13.4 +13.3 99 +11 +11 1007.1 1005.7
20 18.06 ЮЗ 6 н/о н/о +13.6 +12.7 94 +11 +11 1007.5 1006.1
21 18.06 ЮЗ 5 20 км в посл. час ливневой дождь 9/9
[Cu med, cong]
+14.4 +12.1 86 +13 +13 1007.2 1005.8
22 18.06 ЮЗ 5 н/о н/о +16.0 +11.8 76 +15 +15 1007.1 1005.7
23 18.06 Ю 7 н/о н/о +16.7 +10.8 68 +16 +16 1007.0 1005.6
00 19.06 ЮЗ 8 20 км {ливн. осадки} 4/1
[Cu hum Ac trans]
+16.6 +11.5 72 +15 +17 1007.2 1005.8 +13.0 0.0
01 19.06 ЮЗ 8 н/о н/о +17.5 +10.9 65 +16 +16 1007.6 1006.2
02 19.06 Ю 6 н/о н/о +17.8 +11.1 65 +17 +17 1007.6 1006.2
03 19.06 Ю 7 30 км 8/8
[Cu med, cong]
+17.1 +12.0 72 +16 +17 1007.4 1006.0
04 19.06 Ю 7 н/о н/о +17.1 +10.9 67 +16 +16 1007.4 1006.0

 

Местоположение метеостанции Вакканай (Япония): широта 45.42 долгота 141.68 высота над уровнем моря 11 м.

В архиве по умолчанию представлена погода в Вакканае за последнюю неделю. Архивные данные за месяц целиком и за предыдущие месяцы, начиная с января 2011 года, Вы можете получить, выбрав интересующий диапазон дат из раскрывающегося списка и нажав кнопку "Ввод!".


*Определитесь, кто Вы:
робот инопланетянин человек

Внимание! Время в таблицах - всемирное. Для получения местного времени необходимо прибавить поправку, которая равна 9 ч.

Смотрите также архив погоды в соседних городах и на ближайших метеорологических станциях:

Погода на Мысе Крильон (Сахалинская область, Россия) (59 км)
Погода в Китами Сачи (Япония) (89 км)
Погода на Острове Монерон (Сахалинская область, Россия) (100 км)
Погода в Хаборо (Япония) (117 км)
Погода в Омурайсу (Япония) (137 км)
Погода в Невельске (Сахалинская область, Россия) (139 км)
Погода в Корсакове (Сахалинская область, Россия) (158 км)
Погода в Огоньках (Сахалинская область, Россия) (161 км)
Погода в Румои (Япония) (164 км)
Погода в Новиково (Сахалинская область, Россия) (165 км)

Пояснения к столбцам:

Ветер - указаны скорость ветра в м/с - средняя за 10 мин, порывы в срок и между сроками (в фигурных скобках) и направление, откуда дует ветер: С - северный, СВ - северо-восточный, В - восточный, ЮВ - юго-восточный, Ю - южный, ЮЗ - юго-западный, З - западный, СЗ - северо-западный.
Видимость - горизонтальная дальность видимости в метрах или километрах. При видимости от 1 до 10 км при отсутствии осадков обычно наблюдается дымка, при ухудшении видимости до 1 км и менее - туман. В сухую погоду видимость может ухудшаться дымом, пылью или мглою.
Явления - указаны атмосферные явления, наблюдавшиеся в срок или в последний час перед сроком; фигурными скобками обозначены явления, наблюдавшиеся между сроками (за 1-3 часа до срока); квадратными скобками обозначены град или гололедные отложения с указанием их диаметра в мм.
Облачность - указаны через наклонную черту общая и нижняя облачность в баллах и высота нижней границы облаков в метрах; квадратными скобками обозначены формы облаков: Ci - перистые, Cs - перисто-слоистые, Cc - перисто-кучевые, Ac - высококучевые, As - высокослоистые, Sc - слоисто-кучевые, Ns - слоисто-дождевые, Cu - кучевые, Cb - кучево-дождевые. Подробнее классификацию облаков см. в Атласе облаков (PDF).
T - Температура воздуха - температура, измеренная на высоте 2 м над землей.
Td - Температура точки росы - температура, при понижении до которой содержащийся в воздухе водяной пар достигнет насыщения.
f - Относительная влажность воздуха - влажноcть воздуха, измеренная на высоте 2 м над землей.
Te - Эффективная температура - температура, которую ощущает одетый по сезону человек в тени. Характеристика душности погоды. При расчете учитывается влияние влажности воздуха и скорости ветра на теплоощущения человека.
Tes - Эффективная температура на солнце - температура, которую ощущает человек, с поправкой на солнечный нагрев. Характеристика знойности погоды. Зависит от высоты солнца над горизонтом, облачности и скорости ветра. Ночью, в пасмурную погоду, а также при ветре 12 м/с и более поправка равна нулю.
P - Атмосферное давление - приведенное к уровню моря атмосферное давление.
Po - Атмосферное давление - измеренное на уровне метеостанции атмосферное давление.
Tmin - Минимальная температура - минимум температуры воздуха на высоте 2 м над землей.
Tmax - Максимальная температура - максимум температуры воздуха на высоте 2 м над землей.
R - Количество осадков - Количество выпавших осадков за период времени, мм. При наведении курсора мыши на число - период времени, за который выпало указанное количество осадков.
R24 - Количество осадков - Количество выпавших осадков за 24 часа, мм.
S - Снежный покров - Высота снежного покрова, см. При наведении курсора мыши на число - состояние снежного покрова и степень покрытия местности в баллах.